Theta_e
319 321 324 323 321 323 325 323 322 323 324 323 322 318 316 321 325 324 323 324 323 322 322 323 323 322 320 322 325 325 324 325 326 325 325 325 325 326 326 326 326 327 327 326 325 325 325 326 327 326 326 326 325 326 325 325 325 326 326 325 324 324 324
321 321 325 325 322 323 325 323 320 320 322 321 318 313 311 318 323 322 322 323 323 322 320 320 321 320 319 322 324 324 324 325 325 325 324 324 324 324 325 325 325 326 326 326 326 325 324 325 326 326 326 325 325 325 324 324 324 325 325 325 324 323 323
324 321 324 325 322 321 323 322 321 320 319 318 316 311 308 314 321 321 321 322 321 319 316 316 317 317 317 319 320 322 323 324 324 324 323 323 323 323 324 324 324 324 325 326 327 326 325 324 325 326 324 324 323 323 323 322 322 322 323 323 322 321 322
325 323 322 322 320 322 323 323 323 322 319 318 317 314 308 309 317 320 320 320 318 317 316 317 317 318 317 317 318 319 321 322 323 323 322 321 321 321 322 322 323 323 323 325 325 325 324 324 324 324 322 322 322 322 322 320 319 319 319 319 319 317 317
323 319 316 317 320 323 324 323 321 319 318 317 316 315 310 307 311 316 318 317 317 319 319 316 314 316 316 314 315 316 318 320 321 321 321 320 319 320 321 321 322 323 323 323 324 324 324 323 323 322 321 321 321 321 320 319 319 319 318 317 317 317 316
318 312 311 313 318 322 321 319 317 315 314 313 312 311 309 307 307 310 313 316 318 319 318 315 312 311 311 310 310 310 313 318 319 318 319 318 318 319 319 320 320 321 323 323 323 323 323 322 321 321 321 321 321 321 320 319 319 318 318 318 318 319 319
312 308 309 310 314 318 318 317 316 312 311 310 309 308 307 306 306 307 309 312 317 317 317 317 313 310 308 308 307 306 308 315 318 317 316 317 317 317 318 319 319 321 323 323 323 323 321 320 320 319 321 322 321 321 320 320 319 317 316 316 316 317 319
310 307 308 308 312 317 318 318 315 311 310 309 309 308 307 306 305 306 306 308 312 315 316 316 312 309 307 306 306 306 306 309 314 314 313 313 313 314 316 317 319 321 322 323 323 323 322 320 319 319 320 320 320 320 320 319 318 315 314 313 313 314 316
311 308 309 311 315 318 319 317 313 312 312 309 308 308 307 305 305 305 305 305 307 310 312 311 308 306 305 305 305 305 305 306 308 310 310 309 309 312 316 318 320 321 321 322 322 323 322 321 320 319 319 319 319 318 318 318 317 315 314 312 310 311 313
311 310 311 314 319 320 318 316 314 314 313 309 307 306 305 304 305 304 304 304 305 305 306 306 305 304 304 304 304 304 304 304 305 307 308 306 306 308 312 316 319 320 320 320 320 321 321 320 318 318 319 319 318 316 316 316 315 314 313 311 310 309 309
314 313 314 319 321 319 318 317 315 313 311 308 306 305 305 305 305 305 304 304 305 304 305 305 305 305 305 305 305 305 306 306 307 308 307 307 306 306 307 309 314 318 319 319 319 320 319 317 316 317 318 317 316 314 314 314 314 313 312 311 309 309 308
319 319 319 322 322 318 318 318 314 312 309 306 305 305 305 306 305 305 306 306 306 306 306 307 307 307 307 307 307 307 308 308 309 309 309 309 309 309 309 308 309 314 318 318 317 317 316 314 314 315 316 316 315 314 313 313 312 312 311 310 309 308 308
322 322 322 322 322 319 319 319 316 313 309 305 305 306 306 306 306 306 307 307 308 307 307 308 308 308 308 308 308 309 310 310 309 309 310 310 309 310 310 310 310 311 314 315 314 314 313 313 314 314 315 317 316 315 314 313 312 310 310 309 309 308 308
323 323 323 322 321 320 320 320 318 314 309 305 306 307 307 307 307 307 308 308 308 309 309 309 310 311 311 310 312 314 315 314 312 311 312 311 310 310 309 310 311 312 312 313 313 314 314 314 314 314 314 316 316 316 316 315 313 310 310 309 309 308 308
325 323 323 323 322 320 319 319 318 315 308 305 306 307 307 308 307 308 308 308 308 308 309 309 311 314 314 313 315 318 320 319 317 316 317 315 312 310 310 310 310 312 313 313 313 314 314 314 314 315 314 315 315 315 315 315 314 313 311 310 309 309 309
326 325 324 323 321 319 315 313 315 314 308 306 307 307 308 308 308 309 309 310 311 310 311 312 313 317 317 316 318 320 320 320 319 318 319 319 317 315 314 313 312 311 312 313 313 313 313 313 313 314 314 314 314 314 314 314 315 315 314 311 310 311 311
325 324 321 318 316 314 311 309 313 314 309 306 306 307 308 308 311 314 315 316 317 316 317 318 319 321 321 318 318 319 319 319 318 319 320 320 320 319 318 317 316 314 311 311 312 312 313 313 313 314 314 314 314 315 316 316 315 316 315 314 313 313 313
320 320 316 314 311 309 309 309 310 310 308 307 307 308 309 310 315 319 319 319 319 319 319 320 321 322 322 319 318 318 318 318 318 318 320 320 320 320 319 319 319 317 315 313 312 313 314 314 313 314 315 315 315 315 316 317 317 316 315 315 314 313 313
318 319 317 315 312 309 309 308 307 307 307 307 307 309 312 313 315 319 319 319 320 319 320 321 320 320 320 319 319 318 318 318 318 318 319 320 320 320 320 319 319 319 318 317 317 316 317 316 315 315 316 316 316 316 316 317 317 317 316 316 315 314 314
318 321 320 319 317 315 313 309 307 306 307 307 307 311 316 317 316 317 317 318 320 319 319 320 320 318 318 319 319 318 317 317 318 318 318 318 319 319 319 319 319 319 319 319 319 318 319 318 316 316 316 315 315 316 316 317 317 317 317 317 317 316 316
321 323 323 321 319 319 318 315 312 308 307 309 311 314 318 320 318 317 318 319 319 319 319 319 319 318 319 320 319 318 317 317 317 317 317 317 317 316 317 318 318 319 319 319 319 319 319 318 317 316 317 316 315 315 316 316 317 317 317 317 316 316 316
322 323 323 321 320 320 320 320 317 314 312 312 315 317 319 319 319 319 319 320 320 320 319 319 318 318 318 319 319 318 317 317 317 316 316 316 317 317 317 318 318 318 318 318 319 319 319 318 317 316 316 316 316 316 316 316 316 316 316 316 315 315 315
323 323 322 320 319 319 320 321 320 319 318 318 318 318 318 318 318 319 320 320 319 320 320 319 318 318 318 318 319 319 317 316 317 316 316 316 316 317 317 317 317 317 317 318 318 318 318 318 318 317 316 315 315 315 315 315 315 315 315 315 315 314 314
323 323 321 320 320 319 319 321 321 321 321 320 320 320 319 319 319 318 319 319 320 320 319 318 317 317 317 318 319 318 317 317 316 316 315 315 316 317 317 317 317 316 316 317 317 318 318 318 317 315 314 312 310 309 308 308 310 311 313 315 315 314 314
322 321 320 320 320 319 319 321 322 322 321 320 320 320 320 320 320 319 319 319 320 320 318 317 317 316 316 317 317 317 317 317 316 315 315 315 315 316 316 315 315 314 313 314 315 315 315 313 312 310 308 306 305 304 304 304 304 306 309 313 314 315 315
320 319 320 321 321 320 319 320 321 322 321 320 320 320 320 320 319 319 319 319 319 318 317 317 317 316 316 316 316 317 317 317 316 315 316 315 315 316 316 315 313 313 313 312 311 310 310 308 308 307 306 305 304 303 304 304 304 304 306 309 312 313 314
319 320 322 322 322 322 321 321 320 320 320 321 321 321 321 319 319 319 319 319 319 318 318 318 317 316 317 317 317 317 317 316 316 316 316 316 316 315 315 315 314 313 313 311 309 309 309 308 308 306 304 303 302 303 303 304 304 304 304 306 308 311 313
319 321 321 321 321 321 321 320 320 319 320 320 321 321 320 319 319 319 319 319 319 318 318 317 316 317 317 316 316 316 317 316 316 316 316 316 316 316 315 315 314 314 314 312 309 309 309 308 307 304 303 302 302 303 303 304 304 304 304 304 306 309 311
320 319 319 319 319 319 319 319 319 319 320 320 320 320 319 319 319 318 318 317 317 317 316 316 316 316 314 313 313 314 315 316 316 316 316 316 316 316 315 314 314 314 314 313 310 309 309 309 306 302 302 302 303 304 304 304 304 304 304 304 305 306 308
318 318 317 317 317 317 318 319 319 319 319 318 318 317 317 317 317 316 316 316 316 316 316 315 314 313 312 311 309 308 311 314 315 315 315 315 315 315 314 314 314 314 314 312 310 308 307 306 303 301 302 302 303 305 307 306 305 305 304 304 305 305 306
315 316 316 316 315 314 315 316 316 316 316 316 315 315 315 315 315 314 315 316 315 314 313 313 313 312 310 307 303 305 311 314 314 313 311 310 310 310 310 310 309 310 310 307 304 303 302 302 301 300 301 304 305 307 308 308 307 306 305 305 305 305 305
312 313 314 314 314 314 314 314 313 313 313 313 313 314 313 313 312 312 313 314 313 311 310 311 311 309 306 302 302 308 313 315 314 313 311 309 308 307 306 304 303 303 304 302 301 301 301 300 300 300 301 305 309 309 308 308 307 307 307 306 306 306 305
311 312 312 312 313 314 314 313 313 313 313 313 313 313 312 312 312 311 311 312 311 310 309 308 307 304 302 301 304 309 313 313 314 314 312 310 309 308 306 304 304 304 304 303 303 302 301 300 300 300 300 303 308 309 308 308 307 307 307 306 305 305 304
311 312 312 311 312 312 312 312 312 313 314 314 313 313 312 312 313 312 312 311 310 310 309 306 303 302 302 302 303 307 311 312 312 313 312 310 309 308 308 307 307 307 306 305 305 302 300 299 299 299 299 301 305 307 308 307 307 306 305 304 303 302 301
310 311 311 312 312 312 312 312 311 312 312 312 313 313 312 313 313 313 313 312 311 311 310 307 304 302 303 302 302 304 308 310 311 311 311 310 309 309 308 308 308 307 307 307 304 301 299 299 299 299 298 299 301 304 304 304 304 303 302 301 301 300 299
307 308 309 310 311 311 312 312 312 312 312 311 312 312 312 312 312 313 313 313 312 311 311 310 308 305 303 303 303 303 304 307 310 311 310 310 309 309 308 308 308 307 307 306 303 300 299 299 298 298 298 299 299 301 302 302 302 301 300 300 299 299 299
302 303 304 306 308 309 309 309 310 311 311 311 311 311 311 311 311 311 312 312 312 312 311 311 311 308 305 304 304 304 303 304 308 310 309 309 308 308 308 307 307 307 306 304 301 299 299 298 298 298 299 299 300 301 301 301 301 300 300 299 299 299 298
Wind_Speed
21 20 18 18 18 19 19 19 18 16 13 11 8 5 9 14 13 9 8 10 11 9 9 7 5 4 4 6 7 6 6 7 7 7 8 9 9 10 10 9 9 10 9 8 8 10 13 14 12 10 11 11 11 11 9 8 7 7 7 7 6 6 5
20 20 19 18 17 18 20 17 16 16 16 13 9 8 11 15 15 11 10 13 12 7 6 5 5 5 6 8 8 8 8 10 12 12 13 14 13 13 13 12 12 11 10 10 9 8 11 14 14 13 14 15 15 13 12 11 10 9 7 7 6 5 5
19 19 19 18 16 18 19 17 16 17 16 13 11 11 12 15 17 15 14 14 10 6 6 8 9 9 9 9 9 10 10 12 14 16 17 17 16 16 15 13 13 12 12 12 12 11 11 12 16 18 17 17 18 16 14 13 13 11 8 7 6 6 6
19 19 20 19 18 19 19 18 17 16 16 14 13 11 11 14 18 17 14 12 9 8 10 11 11 11 11 10 10 10 11 12 14 15 16 15 14 15 14 13 13 12 11 12 12 12 12 15 20 22 20 19 19 18 15 14 14 12 10 8 8 8 8
18 18 19 20 20 20 19 18 17 16 16 14 12 11 10 12 15 16 14 12 12 13 11 9 9 9 9 9 9 10 11 12 13 14 15 15 13 14 15 14 13 13 12 11 11 11 12 17 21 24 22 20 19 18 16 15 15 14 12 11 10 10 11
17 17 18 20 20 19 18 17 15 14 14 13 12 12 11 11 12 14 14 14 15 14 11 9 9 9 8 9 9 9 11 13 13 13 14 15 15 15 15 15 13 13 14 13 13 14 16 19 23 24 22 19 19 19 17 15 14 13 11 10 10 10 10
16 17 17 18 18 17 16 13 11 11 12 13 13 13 11 11 11 12 12 14 15 14 13 10 10 10 10 11 12 13 13 14 13 12 13 14 14 14 15 15 14 15 16 16 15 16 18 21 24 24 21 19 19 18 17 16 12 9 9 8 8 8 9
16 16 17 17 18 17 14 12 10 10 11 12 12 10 10 10 11 12 12 13 15 15 13 10 9 11 11 12 12 13 15 14 13 13 14 13 14 15 16 16 16 17 17 17 16 14 14 17 20 23 24 24 22 19 18 16 10 6 7 6 5 5 7
15 16 17 18 18 16 14 12 11 10 11 12 11 9 10 10 11 12 13 13 14 13 12 10 10 12 12 12 11 11 13 14 14 14 13 13 14 16 17 17 18 18 17 17 17 15 14 13 14 17 20 22 24 23 20 16 11 7 4 3 4 5 4
16 17 17 18 17 15 14 12 12 11 11 11 11 11 12 13 13 14 14 14 14 14 14 14 15 15 15 15 14 14 14 14 13 13 12 14 16 16 16 16 18 18 16 16 17 16 15 11 9 10 12 16 21 23 21 17 12 8 4 1 3 4 4
17 16 17 18 17 16 16 15 13 12 12 12 12 13 14 15 16 15 16 17 17 16 17 17 17 17 17 17 17 17 16 15 15 14 14 15 17 17 17 16 16 17 15 14 14 14 12 9 8 9 10 15 21 18 17 18 14 9 7 3 3 3 4
16 16 17 18 16 16 17 16 14 13 13 14 14 15 15 16 17 16 16 17 17 17 17 17 17 16 16 17 17 16 16 15 15 15 14 15 15 15 16 17 17 16 15 14 13 11 9 6 7 7 10 14 17 15 13 15 15 12 8 5 3 2 3
17 16 17 18 17 17 18 16 15 14 14 15 16 16 16 17 16 16 15 16 16 16 16 16 15 15 15 15 14 14 13 12 12 12 12 13 13 12 11 13 17 18 17 15 14 12 9 7 6 6 8 11 13 13 12 11 13 14 9 4 2 0 1
18 18 17 18 18 19 18 16 15 14 14 16 17 16 17 17 16 15 15 14 14 13 13 13 13 12 13 13 13 11 9 8 8 9 9 9 10 10 10 11 14 16 17 16 14 12 10 8 7 7 8 9 11 10 8 7 10 13 10 7 6 3 2
18 19 19 18 18 19 18 16 15 15 15 17 17 17 17 16 16 15 14 13 12 11 10 10 10 10 9 10 13 12 7 5 6 7 7 7 6 6 7 9 11 12 13 14 12 10 10 10 9 9 9 9 11 10 7 6 8 9 9 9 9 7 5
17 17 17 17 17 18 17 15 14 14 15 16 16 16 16 16 15 14 13 12 11 9 9 9 8 7 6 8 12 13 9 7 7 7 7 7 6 5 5 7 9 10 11 11 11 11 13 13 12 11 10 9 10 10 7 6 7 7 8 8 9 8 6
17 14 13 13 15 16 16 15 15 14 14 16 16 15 15 15 14 12 11 10 9 8 8 9 8 7 6 8 12 12 10 8 8 9 9 7 6 5 5 6 7 9 11 11 11 11 12 12 11 10 10 10 11 10 8 7 7 7 7 8 9 8 6
17 14 14 13 14 15 15 15 15 14 13 15 16 15 14 14 13 11 11 10 9 8 8 9 9 8 8 8 9 9 7 6 6 8 8 8 7 6 5 6 6 8 9 10 12 12 11 10 9 9 9 11 12 10 9 8 7 7 8 8 8 9 7
18 16 16 15 15 15 13 12 13 13 13 13 14 13 12 11 12 13 12 12 11 10 10 10 9 8 8 8 7 6 5 4 5 6 7 8 9 8 7 7 7 7 7 8 10 11 9 9 9 9 9 10 10 9 8 8 7 7 7 6 7 9 8
19 17 17 17 16 15 13 12 12 12 13 13 13 13 11 10 12 14 13 12 13 13 12 12 11 10 10 9 8 7 6 6 7 7 7 8 9 10 9 8 9 9 7 7 8 8 7 8 9 9 8 8 9 9 9 9 8 8 7 6 6 8 8
20 20 21 21 18 15 13 11 11 13 14 14 13 14 14 13 13 13 13 13 13 13 12 11 11 11 12 12 10 9 7 7 8 9 9 9 9 10 9 9 9 9 8 8 8 8 7 7 7 8 8 8 8 9 9 10 9 7 7 7 6 7 8
20 20 21 20 18 16 14 12 11 13 15 15 15 16 16 16 15 15 15 14 15 14 13 11 11 11 13 13 12 10 8 8 9 10 11 11 10 10 10 10 9 9 9 9 8 8 8 7 6 6 7 8 8 8 9 10 9 8 9 9 8 7 7
21 19 19 20 20 19 17 15 15 16 17 17 17 18 18 17 17 17 17 17 17 16 14 14 12 11 12 13 12 11 10 9 9 10 11 10 9 10 10 10 9 9 9 9 9 8 8 8 7 7 7 7 8 8 9 9 10 10 10 10 10 10 9
18 17 17 19 20 20 20 20 20 20 19 19 19 19 19 19 18 18 18 19 18 17 15 15 14 12 11 13 13 12 10 7 6 7 7 9 9 10 11 10 9 9 8 8 8 9 9 8 8 7 6 6 5 6 7 7 8 8 9 10 11 11 12
17 16 16 17 18 20 21 21 22 23 22 21 21 21 21 20 19 18 19 19 19 17 15 14 13 12 11 12 12 10 8 7 7 7 9 10 10 10 10 9 9 9 8 8 8 8 8 8 7 6 4 3 3 4 5 5 6 7 8 9 10 11 13
14 15 15 16 17 19 21 22 24 24 23 22 23 23 22 21 20 19 20 20 19 18 16 15 14 12 11 11 9 8 9 10 10 10 11 11 11 11 10 9 9 9 8 8 8 8 8 7 6 4 3 3 4 5 6 6 7 8 8 9 10 11 13
10 11 12 13 15 16 19 22 23 23 23 22 22 22 21 20 18 18 19 20 19 18 17 17 14 11 10 10 10 12 13 13 13 13 13 12 12 13 12 10 9 9 8 7 7 7 7 6 5 4 4 4 5 6 6 7 8 9 10 10 11 12 14
10 10 10 9 11 12 13 16 17 18 18 18 18 19 19 18 18 18 19 19 18 18 17 15 11 9 11 13 15 15 14 13 14 13 13 12 12 12 12 11 11 9 7 6 7 6 6 7 7 7 6 5 5 5 6 7 8 8 9 9 10 11 12
10 10 9 7 8 9 10 11 12 12 13 14 16 17 17 17 17 16 16 16 15 14 13 11 11 12 13 14 14 14 14 14 15 15 14 13 13 12 12 11 11 10 8 7 7 7 8 8 8 8 7 6 7 6 6 7 8 8 8 8 8 8 9
9 9 9 7 6 6 7 9 9 10 11 12 13 14 14 13 13 12 11 11 11 11 12 13 13 13 14 13 13 14 16 18 18 18 18 18 17 15 14 13 13 12 10 9 8 9 9 8 8 9 9 9 8 8 9 10 10 10 9 9 9 10 10
11 9 7 6 5 5 6 6 6 7 8 9 9 9 9 9 9 9 9 10 11 11 11 13 13 13 12 12 14 17 18 19 18 17 17 18 17 15 14 14 14 13 11 9 9 8 8 8 8 9 10 10 10 10 11 13 13 13 11 11 11 12 13
13 12 9 6 4 4 4 4 4 5 5 4 5 5 6 7 8 8 9 11 11 11 11 12 13 12 12 14 17 19 19 18 18 16 14 13 12 12 12 12 12 11 10 8 6 5 5 6 7 8 10 12 12 12 13 15 16 15 14 13 14 15 16
8 9 8 7 6 5 4 3 3 5 4 3 4 5 6 7 9 9 10 11 11 10 11 12 12 13 15 16 18 19 18 17 18 18 14 12 11 11 11 11 10 9 9 7 5 4 5 7 8 8 9 12 13 12 13 15 16 17 16 16 16 17 18
3 4 3 3 5 6 5 3 4 7 7 6 7 8 9 12 14 14 13 14 13 11 11 12 13 14 15 16 18 20 18 15 18 19 16 13 13 12 11 11 10 9 9 8 6 6 6 7 8 9 10 12 13 13 14 15 16 18 18 18 18 18 17
3 4 5 5 6 6 5 4 5 9 11 11 11 9 9 12 17 19 19 18 17 16 14 13 13 14 15 15 17 19 18 15 17 20 19 16 14 13 12 11 10 10 10 9 7 7 6 7 9 10 11 12 13 14 15 15 15 16 17 17 16 15 14
8 8 7 7 8 9 8 7 6 8 11 14 17 16 13 11 14 20 24 23 21 20 18 16 15 16 17 17 16 18 18 16 16 20 21 18 15 15 14 12 11 11 10 8 8 7 7 7 9 10 11 12 13 14 14 14 14 14 14 14 14 13 13
11 11 11 10 10 10 11 10 9 10 11 14 17 21 21 17 14 16 20 22 22 22 21 19 17 17 18 18 17 18 19 19 18 19 19 18 16 15 14 13 12 11 9 9 8 8 8 9 9 10 11 12 12 12 12 13 13 13 12 12 12 12 13
Wind_Direction
153 150 153 154 149 150 156 161 164 165 172 181 190 192 154 140 139 142 136 122 116 125 140 160 182 170 149 136 120 104 101 108 113 123 119 108 111 114 111 115 123 134 140 139 146 151 144 136 130 127 122 115 111 110 113 116 122 139 152 155 157 161 168
155 154 159 165 163 163 168 171 170 169 176 183 179 168 156 149 148 143 132 129 132 138 139 151 164 138 116 117 112 107 107 106 106 106 98 93 95 98 101 107 110 120 132 135 140 154 151 142 137 133 125 117 111 108 105 104 109 119 129 135 133 131 135
162 163 168 175 172 167 168 167 164 164 166 163 147 139 141 149 152 146 135 136 142 135 107 106 112 109 114 121 118 119 120 117 115 112 103 98 97 96 94 93 94 104 125 138 145 152 152 143 137 134 128 121 116 112 105 99 100 103 105 112 115 113 117
168 173 175 173 167 164 164 165 165 164 160 154 146 138 129 139 154 157 151 148 138 110 100 102 106 108 117 127 132 132 129 124 123 120 114 110 108 105 100 94 91 94 113 137 149 155 155 144 136 132 127 121 115 111 107 98 92 93 97 100 100 101 105
172 177 176 169 165 167 171 176 174 168 164 160 155 148 133 134 149 159 160 149 126 112 109 106 112 119 122 131 142 143 140 134 129 129 126 120 119 119 118 114 106 100 106 126 140 148 150 142 137 132 127 124 120 115 110 99 88 83 83 84 87 89 91
173 171 170 169 169 174 180 181 175 165 164 163 156 152 146 139 142 151 155 146 132 126 120 106 106 114 112 115 122 126 137 142 138 137 135 128 124 126 128 126 117 109 109 115 120 127 135 137 134 131 129 131 130 122 114 106 95 81 69 65 77 87 89
170 165 166 169 169 174 178 177 171 162 157 155 151 150 149 142 138 142 145 143 141 134 125 116 110 107 103 104 104 104 115 133 142 140 137 135 131 130 134 130 119 114 115 114 115 119 128 132 131 130 135 144 140 128 124 122 108 85 75 64 65 83 96
169 164 165 167 167 171 177 178 174 162 152 152 152 149 144 138 134 135 136 137 140 139 135 130 117 112 113 112 111 107 108 120 132 131 128 132 133 132 134 127 119 121 121 121 124 128 129 129 129 131 138 146 147 142 139 138 128 94 80 70 68 87 106
173 168 167 166 166 172 180 181 173 163 158 156 150 140 134 131 128 130 132 134 138 140 140 129 114 115 118 115 114 114 112 117 125 126 122 119 121 128 134 127 122 125 128 131 136 142 142 135 136 143 146 148 149 146 146 145 141 129 97 48 75 98 105
178 174 170 165 168 176 180 179 175 169 167 158 144 133 129 125 122 122 123 124 124 123 119 113 108 109 109 109 108 107 107 111 116 119 114 105 105 118 130 132 131 129 128 134 138 141 142 134 130 144 160 172 164 151 148 148 145 148 158 40 44 85 96
178 173 169 166 172 177 177 180 180 173 166 155 142 135 130 125 122 122 121 120 117 114 111 108 108 107 107 107 106 103 104 106 106 105 101 98 100 106 112 119 132 136 132 132 135 137 138 122 103 107 130 168 174 161 149 150 151 162 171 141 66 69 89
173 171 168 171 178 179 180 186 183 173 164 156 146 140 134 129 127 127 125 121 119 116 114 111 110 110 109 109 110 110 111 111 110 107 104 102 101 102 101 105 120 134 138 136 133 132 133 111 91 93 107 141 164 169 161 153 150 159 174 165 124 69 60
172 175 175 177 179 178 184 192 187 177 167 159 151 145 140 135 134 134 131 127 124 123 121 120 119 117 114 113 113 113 111 110 114 115 112 112 112 111 106 105 114 124 130 132 128 124 127 113 95 97 106 121 143 165 175 165 150 150 158 183 184 168 358
179 181 182 182 180 180 186 193 192 184 173 164 157 153 148 143 142 141 137 133 131 130 129 128 128 126 122 120 117 112 106 104 112 115 111 113 122 122 113 112 119 124 128 131 129 123 124 124 111 107 119 126 131 146 168 166 156 157 165 186 187 181 226
178 181 183 183 184 188 190 193 195 190 179 170 164 160 156 151 150 148 145 143 141 140 140 138 137 136 133 129 126 123 121 121 120 116 109 114 128 123 113 121 132 136 136 138 138 129 123 131 133 123 122 126 124 127 133 130 136 150 166 179 177 171 193
179 182 186 191 195 197 198 201 202 194 185 178 171 168 163 158 156 153 151 148 143 141 139 138 142 145 142 142 141 141 146 154 151 145 137 131 134 136 132 136 143 149 150 149 148 137 127 134 141 134 127 125 125 126 126 126 126 131 148 166 173 175 184
189 191 193 198 201 200 200 207 211 204 194 186 180 176 171 165 159 153 150 145 138 141 143 143 149 157 158 158 159 159 161 166 167 162 158 157 161 176 174 158 153 160 164 167 167 156 141 142 146 143 141 144 144 138 130 133 136 137 151 165 175 186 187
198 198 198 201 203 203 203 209 212 209 202 194 186 181 176 170 163 158 158 158 162 169 169 169 172 176 178 177 174 174 172 176 180 173 173 183 194 203 201 186 176 171 170 173 175 170 160 157 155 152 156 160 162 159 149 145 142 145 160 165 171 190 195
204 202 200 204 203 199 199 207 212 210 204 199 191 184 180 173 173 175 175 176 186 192 192 197 199 193 195 199 198 203 212 225 219 203 203 212 213 214 216 211 199 189 185 182 181 177 171 174 174 167 164 164 170 178 173 166 161 157 166 170 172 187 194
211 206 199 197 197 195 193 197 205 207 206 202 194 188 187 185 183 186 187 190 200 208 209 208 208 211 216 215 218 231 246 255 247 236 236 238 232 229 228 222 210 202 201 197 191 185 177 178 183 186 188 179 175 183 185 179 179 181 186 195 200 205 210
211 205 192 186 190 195 193 194 198 202 203 203 197 192 192 193 191 192 198 204 213 222 223 215 214 223 226 222 226 240 249 255 255 254 253 250 245 240 231 221 213 205 200 197 197 197 190 182 183 191 203 200 187 188 189 183 186 201 212 218 229 230 230
211 206 195 191 197 197 192 193 197 200 201 201 199 198 199 201 201 203 209 216 225 232 233 230 231 234 230 227 229 233 243 254 256 255 252 248 246 238 223 213 210 205 199 197 203 208 205 205 206 196 194 199 204 206 207 207 214 232 242 242 244 240 231
211 209 206 205 205 201 199 200 201 203 203 201 203 206 209 209 208 210 215 222 230 236 238 239 243 240 230 228 227 229 245 258 256 251 243 233 227 216 202 201 206 207 205 206 209 212 214 221 229 221 208 208 212 215 219 225 231 238 244 242 238 234 229
208 208 209 208 206 206 206 201 201 205 206 206 209 212 214 217 217 217 221 227 232 238 242 243 247 244 236 232 232 239 253 251 232 224 206 190 190 188 186 191 195 194 197 201 203 207 213 222 229 228 224 221 223 227 229 232 232 233 238 238 234 232 234
200 200 200 202 206 210 207 203 205 211 212 212 215 217 219 222 225 228 230 232 236 241 242 242 247 249 243 240 240 242 235 206 178 163 157 159 162 164 170 175 172 170 172 172 179 191 200 206 208 208 213 230 257 271 273 271 263 255 250 243 238 235 237
192 198 198 198 204 208 208 207 211 216 219 219 219 222 225 227 232 237 236 236 240 242 241 244 252 253 246 240 230 206 187 170 154 144 144 147 147 149 154 155 158 171 177 170 172 184 191 193 193 194 215 266 286 290 289 286 279 273 266 258 251 246 243
174 187 193 197 202 207 209 209 211 217 223 224 224 227 232 235 238 238 237 237 240 241 245 252 256 246 229 213 188 173 170 164 155 150 148 150 155 159 159 157 167 184 188 183 184 191 197 205 210 223 250 271 279 279 277 276 275 273 271 267 261 257 254
148 165 174 183 191 196 201 205 209 214 220 225 228 231 233 236 237 236 237 239 240 241 245 245 234 209 190 181 174 170 169 167 166 165 164 168 175 177 174 174 184 194 192 187 194 205 218 231 238 244 248 253 265 273 274 276 281 284 284 280 274 267 263
133 141 149 159 174 183 190 195 198 203 212 218 224 227 228 229 231 232 235 236 233 230 225 209 192 178 172 175 179 177 174 176 178 178 178 182 186 189 188 187 193 202 203 202 216 232 237 245 256 261 257 257 266 277 285 288 292 297 298 300 300 294 285
133 131 133 135 143 164 181 190 194 199 205 211 216 220 222 222 220 218 219 215 204 197 190 181 176 176 178 187 194 190 186 188 190 189 190 193 196 198 198 198 202 209 213 218 228 231 229 235 251 260 264 266 270 278 285 287 288 290 295 306 313 311 307
111 120 131 131 122 128 146 164 178 187 196 204 209 211 211 211 206 198 194 192 185 182 185 184 184 189 194 197 193 184 183 190 196 198 197 197 201 206 207 207 211 215 219 222 225 228 233 240 245 252 256 255 256 264 272 276 278 281 287 297 300 301 302
102 108 118 127 133 136 130 134 154 167 171 184 195 201 213 221 216 201 190 190 192 196 200 201 203 203 197 191 186 181 183 194 202 205 204 204 209 213 212 211 212 215 222 226 228 245 266 269 266 261 250 242 242 249 260 271 278 280 284 289 290 292 294
116 116 118 120 133 151 153 138 167 183 186 214 235 238 241 242 240 231 217 214 219 221 215 209 207 200 189 184 187 188 192 202 206 207 211 217 220 213 204 202 205 212 221 224 233 272 292 289 283 272 254 245 245 248 254 263 271 276 280 284 286 289 293
143 156 168 167 160 165 164 158 187 203 206 212 226 238 238 234 235 235 227 223 228 233 227 214 204 196 190 189 194 196 199 205 210 211 214 217 217 214 210 209 212 217 220 223 240 269 282 282 279 272 261 253 252 255 259 261 266 273 278 282 284 285 290
228 228 226 228 220 208 201 197 208 218 219 213 214 229 238 232 230 229 226 221 220 223 224 218 212 204 197 195 201 204 207 211 214 216 216 213 208 210 214 217 217 216 215 223 243 260 264 269 269 264 259 255 253 257 262 265 269 272 274 277 281 282 282
261 262 259 254 245 238 237 236 229 230 232 227 226 232 240 243 235 229 226 223 218 217 217 219 223 221 211 204 204 208 212 214 210 210 215 215 208 204 209 211 209 211 218 232 249 261 267 268 263 259 257 255 255 258 262 267 270 272 273 275 277 277 275
267 266 265 258 249 246 249 252 250 245 242 239 235 235 239 246 246 233 228 225 220 220 222 223 225 227 221 216 214 215 216 216 212 210 215 218 212 206 207 205 204 211 228 243 254 267 276 275 268 262 260 258 259 263 266 269 273 276 277 277 275 274 275